| time (UTC) | temp F | wind direction | speed MPH | gust MPH | rain 1hr in | rain 24hr in | rain mn in | humidity % | barometer mb |
| 20260504205027 | 59 | 36 | 3.0 | 8.0 | 0.00 | 0.00 | 0.00 | 75 | 1012.9 |
| 20260504204019 | 60 | 43 | 3.0 | 9.0 | 0.00 | 0.00 | 0.00 | 75 | 1012.9 |
| 20260504203022 | 60 | 36 | 3.0 | 8.0 | 0.00 | 0.00 | 0.00 | 73 | 1012.9 |
| 20260504202031 | 61 | 43 | 3.0 | 9.0 | 0.00 | 0.00 | 0.00 | 73 | 1012.9 |
| 20260504201029 | 61 | 34 | 6.0 | 11.0 | 0.00 | 0.00 | 0.00 | 72 | 1012.5 |
| 20260504193029 | 62 | 25 | 6.0 | 11.0 | 0.00 | 0.00 | 0.00 | 70 | 1012.5 |
| 20260504192020 | 63 | 35 | 6.0 | 11.0 | 0.00 | 0.00 | 0.00 | 69 | 1012.5 |
| 20260504191027 | 63 | 351 | 5.0 | 11.0 | 0.00 | 0.00 | 0.00 | 69 | 1011.9 |
| 20260504190029 | 63 | 353 | 5.0 | 11.0 | 0.00 | 0.00 | 0.00 | 68 | 1011.9 |
| 20260504185024 | 64 | 350 | 5.0 | 11.0 | 0.00 | 0.00 | 0.00 | 66 | 1011.9 |
| 20260504184022 | 65 | 347 | 5.0 | 11.0 | 0.00 | 0.00 | 0.00 | 65 | 1011.9 |
| 20260504183028 | 67 | 351 | 6.0 | 12.0 | 0.00 | 0.00 | 0.00 | 63 | 1011.9 |
| 20260504182023 | 67 | 351 | 5.0 | 11.0 | 0.00 | 0.00 | 0.00 | 62 | 1011.9 |
| 20260504181017 | 68 | 311 | 5.0 | 12.0 | 0.00 | 0.00 | 0.00 | 60 | 1011.7 |
| 20260504180019 | 69 | 307 | 5.0 | 12.0 | 0.00 | 0.00 | 0.00 | 59 | 1011.7 |
| 20260504175019 | 69 | 306 | 5.0 | 12.0 | 0.00 | 0.00 | 0.00 | 59 | 1011.7 |
| 20260504174021 | 70 | 308 | 4.0 | 11.0 | 0.00 | 0.00 | 0.00 | 57 | 1011.7 |
| 20260504173021 | 71 | 312 | 5.0 | 12.0 | 0.00 | 0.00 | 0.00 | 56 | 1011.7 |
| 20260504171027 | 71 | 300 | 9.0 | 15.0 | 0.00 | 0.00 | 0.00 | 54 | 1011.6 |
| 20260504151030 | 77 | 286 | 11.0 | 19.0 | 0.00 | 0.00 | 0.00 | 49 | 1012.0 |
| 20260504141018 | 74 | 285 | 9.0 | 22.0 | 0.00 | 0.00 | 0.00 | 51 | 1011.9 |
| 20260504050020 | 62 | 246 | 8.0 | 14.0 | 0.00 | 0.00 | 0.00 | 68 | 1010.8 |
| 20260504045017 | 62 | 250 | 8.0 | 14.0 | 0.00 | 0.00 | 0.00 | 68 | 1010.8 |
| 20260504044024 | 62 | 253 | 7.0 | 13.0 | 0.00 | 0.00 | 0.00 | 68 | 1010.8 |
| 20260504043025 | 62 | 250 | 7.0 | 13.0 | 0.00 | 0.00 | 0.00 | 67 | 1010.8 |
| 20260504042017 | 62 | 254 | 8.0 | 13.0 | 0.00 | 0.00 | 0.00 | 66 | 1010.8 |
| 20260504041016 | 63 | 255 | 5.0 | 14.0 | 0.00 | 0.00 | 0.00 | 64 | 1010.8 |
| 20260504035020 | 63 | 251 | 5.0 | 14.0 | 0.00 | 0.00 | 0.00 | 60 | 1010.8 |
| 20260504034023 | 63 | 256 | 5.0 | 13.0 | 0.00 | 0.00 | 0.00 | 60 | 1010.8 |
| 20260504033020 | 63 | 251 | 5.0 | 14.0 | 0.00 | 0.00 | 0.00 | 59 | 1010.8 |
| 20260504032027 | 63 | 256 | 6.0 | 14.0 | 0.00 | 0.00 | 0.00 | 58 | 1010.8 |
| 20260504031016 | 63 | 275 | 8.0 | 14.0 | 0.00 | 0.00 | 0.00 | 58 | 1010.5 |
| 20260504030016 | 64 | 264 | 8.0 | 14.0 | 0.00 | 0.00 | 0.00 | 57 | 1010.5 |
| 20260504025020 | 64 | 265 | 9.0 | 15.0 | 0.00 | 0.00 | 0.00 | 57 | 1010.5 |
| 20260504024026 | 64 | 275 | 9.0 | 15.0 | 0.00 | 0.00 | 0.00 | 55 | 1010.5 |
| 20260504022020 | 64 | 264 | 9.0 | 15.0 | 0.00 | 0.00 | 0.00 | 55 | 1010.5 |
| 20260504021023 | 63 | 284 | 12.0 | 20.0 | 0.00 | 0.00 | 0.00 | 54 | 1010.2 |
| 20260504020027 | 64 | 285 | 12.0 | 21.0 | 0.00 | 0.00 | 0.00 | 54 | 1010.2 |
| 20260504015015 | 65 | 284 | 12.0 | 20.0 | 0.00 | 0.00 | 0.00 | 52 | 1010.2 |
| 20260504013018 | 66 | 286 | 12.0 | 20.0 | 0.00 | 0.00 | 0.00 | 50 | 1010.2 |
| 20260504012029 | 66 | 280 | 12.0 | 21.0 | 0.00 | 0.00 | 0.00 | 49 | 1010.2 |
| 20260504011027 | 67 | 281 | 11.0 | 19.0 | 0.00 | 0.00 | 0.00 | 48 | 1010.2 |
| 20260504010020 | 67 | 279 | 12.0 | 20.0 | 0.00 | 0.00 | 0.00 | 47 | 1010.2 |
| 20260504003024 | 67 | 280 | 12.0 | 20.0 | 0.00 | 0.00 | 0.00 | 46 | 1010.2 |
| 20260504002030 | 68 | 280 | 12.0 | 20.0 | 0.00 | 0.00 | 0.00 | 46 | 1010.2 |
| 20260504001026 | 68 | 254 | 7.0 | 11.0 | 0.00 | 0.00 | 0.00 | 46 | 1010.1 |
| 20260503235031 | 68 | 261 | 7.0 | 12.0 | 0.00 | 0.00 | 0.00 | 46 | 1010.1 |
| 20260503234021 | 68 | 264 | 7.0 | 12.0 | 0.00 | 0.00 | 0.00 | 46 | 1010.1 |
| 20260503233030 | 66 | 265 | 7.0 | 11.0 | 0.00 | 0.00 | 0.00 | 49 | 1010.1 |
| 20260503232019 | 65 | 260 | 7.0 | 12.0 | 0.00 | 0.00 | 0.00 | 50 | 1010.1 |
| 20260503231018 | 65 | 185 | 2.0 | 7.0 | 0.00 | 0.00 | 0.00 | 51 | 1010.3 |
| 20260503225023 | 65 | 186 | 2.0 | 7.0 | 0.00 | 0.00 | 0.00 | 51 | 1010.3 |
| 20260503223031 | 66 | 264 | 5.0 | 9.0 | 0.00 | 0.00 | 0.00 | 49 | 1010.2 |
| 20260503222025 | 67 | 276 | 5.0 | 8.0 | 0.00 | 0.00 | 0.00 | 47 | 1010.2 |
| 20260503221025 | 68 | 269 | 5.0 | 9.0 | 0.00 | 0.00 | 0.00 | 46 | 1010.2 |
| 20260503215024 | 68 | 267 | 5.0 | 8.0 | 0.00 | 0.00 | 0.00 | 46 | 1010.2 |
| 20260503214029 | 69 | 275 | 6.0 | 9.0 | 0.00 | 0.00 | 0.00 | 46 | 1010.2 |
| 20260503213029 | 67 | 270 | 5.0 | 8.0 | 0.00 | 0.00 | 0.00 | 49 | 1010.2 |
| 20260503212024 | 66 | 270 | 5.0 | 9.0 | 0.00 | 0.00 | 0.00 | 51 | 1010.2 |
| 20260503211020 | 65 | 177 | 2.0 | 5.0 | 0.00 | 0.00 | 0.00 | 52 | 1009.9 |